Lid_Strength_Index
3 3 3 4 4 3 3 2 2 2 2 1 1 1 1 1 1 0 2 1 0 -2 -1 2 3 2 3 4 2 3 6 8 8 8 9 5 7 5 4 6 5 5 5 4 2
4 4 4 4 4 3 2 2 2 2 2 1 1 1 1 1 1 2 0 -4 -3 -2 2 3 4 3 4 5 3 4 7 8 6 6 7 6 6 6 7 7 7 6 4 3 3
4 4 4 3 3 2 2 2 2 2 1 1 1 1 1 0 2 2 -4 -4 -4 -2 2 4 4 3 4 4 4 5 8 6 6 5 5 6 6 5 7 9 7 7 5 4 4
4 4 4 4 2 2 2 2 2 2 1 1 1 1 1 0 6 1 -3 -4 -4 1 3 3 4 4 5 6 5 7 6 6 6 5 6 7 5 7 6 7 5 4 4 4 5
4 4 4 4 2 2 2 2 2 2 2 1 1 1 1 3 3 -1 -3 -3 1 3 5 4 3 4 6 6 5 7 6 5 5 5 5 5 7 7 7 5 4 4 4 5 5
4 4 4 4 2 2 2 2 2 2 2 1 1 1 2 5 -0 -1 0 2 4 4 2 2 3 3 5 6 6 6 6 6 5 6 5 7 7 6 6 4 4 4 4 3 3
4 4 4 3 2 2 2 2 3 2 2 1 0 1 2 3 -0 -1 1 2 3 3 2 1 2 3 4 6 4 5 8 7 6 6 6 5 9 9 5 5 5 5 4 3 3
4 4 4 2 2 2 2 2 2 2 2 1 0 0 3 1 -1 0 1 2 2 3 1 1 1 3 4 4 6 7 7 10 7 6 6 7 12 8 5 5 6 5 5 4 3
4 4 4 2 2 2 2 2 2 2 1 1 1 2 3 1 1 0 0 2 2 2 1 1 2 4 5 7 8 8 10 10 10 6 7 7 11 7 5 6 6 5 4 4 3
4 4 3 2 2 2 3 3 2 2 1 0 0 3 2 3 1 1 -0 1 3 3 3 3 3 6 6 7 10 9 10 9 10 8 7 9 10 8 6 6 6 5 4 4 4
5 4 3 3 2 3 3 0 2 3 2 3 3 3 3 1 0 2 1 1 2 3 5 4 6 7 6 6 6 6 8 10 9 8 9 9 9 8 7 6 6 5 5 4 4
5 4 3 3 3 3 2 2 3 2 4 2 2 3 2 2 5 4 2 4 4 5 4 5 7 5 5 6 7 7 9 10 9 8 8 9 10 8 7 6 5 5 5 4 3
5 3 3 3 3 2 1 2 1 2 4 4 3 3 3 2 4 4 3 4 5 5 5 6 6 5 6 7 8 8 9 10 10 9 8 9 12 10 7 6 5 5 4 4 4
4 3 3 3 3 1 2 2 2 2 6 6 4 3 2 2 5 3 3 4 5 6 6 6 5 6 7 7 7 9 7 8 9 11 12 9 13 12 9 8 7 6 5 4 4
3 3 3 4 2 2 2 2 2 1 11 5 4 2 3 4 4 4 2 3 6 6 6 7 7 7 7 8 6 9 7 8 9 10 11 11 13 12 9 10 8 6 5 4 3
3 3 4 2 1 2 2 1 1 7 11 6 4 5 5 4 4 3 4 2 3 5 5 6 4 5 7 6 6 6 8 8 8 9 13 11 12 12 12 9 8 6 5 4 3
3 3 3 2 2 2 1 1 8 9 6 7 6 5 5 6 6 5 6 6 7 9 9 7 7 6 5 8 7 7 9 13 13 15 14 10 12 12 9 7 7 6 5 4 3
4 4 3 1 0 0 1 5 10 8 8 6 6 6 7 6 6 6 7 7 6 7 7 10 11 7 5 7 8 8 9 11 15 14 12 11 14 12 7 6 5 5 4 4 4
5 -0 -0 -2 -0 -0 3 8 9 8 6 7 6 7 7 7 7 7 7 8 7 6 9 9 10 6 6 5 6 8 9 7 10 10 12 12 11 8 7 7 6 6 5 5 4
0 1 1 -1 -1 1 5 9 7 5 5 6 9 7 9 8 8 7 8 6 7 6 5 7 10 7 6 5 5 7 6 10 9 15 16 13 12 13 9 8 7 6 6 5 4
1 3 1 -1 1 3 6 7 6 5 5 6 7 7 8 8 8 8 8 6 6 6 5 6 8 8 6 8 8 7 8 8 9 10 14 13 14 7 8 7 6 5 5 5 4
1 4 -0 -1 5 4 6 6 8 5 4 5 5 6 7 7 8 8 9 7 5 5 7 6 7 10 9 6 5 6 8 8 11 13 11 11 14 6 6 6 5 5 5 4 3
2 3 -0 1 6 6 5 6 5 5 6 6 6 5 5 7 9 8 7 5 5 6 7 6 9 11 11 8 7 8 7 7 8 9 12 12 12 6 5 5 5 5 5 5 3
2 5 3 2 3 5 6 6 6 4 5 5 6 5 6 7 6 8 7 6 5 5 5 5 8 10 12 11 8 10 9 8 8 11 11 11 10 8 7 6 5 5 5 4 3
3 5 5 6 5 5 5 6 7 7 5 5 6 6 6 8 7 8 7 6 5 6 5 6 10 8 8 8 9 9 10 10 11 10 12 10 10 8 6 6 5 4 4 4 4
3 4 3 5 5 5 7 7 7 6 6 6 7 6 6 7 7 8 7 7 8 6 7 6 10 9 11 9 10 12 11 10 9 9 10 9 9 5 5 4 5 5 4 4 4
1 1 3 7 6 6 6 6 6 5 5 5 5 6 7 6 5 5 5 5 6 7 8 8 9 10 13 11 12 15 10 9 9 8 9 11 7 5 5 5 5 5 4 4 4